TimeAKST,TemperatureF,Dew PointF,Humidity,Sea Level PressureIn,VisibilityMPH,Wind Direction,Wind SpeedMPH,Gust SpeedMPH,PrecipitationIn,Events,Conditions,WindDirDegrees,DateUTC
12:53 AM,32.0,26.1,79,29.70,10.0,SSE,16.1,-,N/A,,Overcast,160,2013-11-08 09:53:00
1:53 AM,32.0,28.9,88,29.69,6.0,SE,18.4,-,0.00,Snow,Light Snow,140,2013-11-08 10:53:00
1:57 AM,32.0,28.4,87,29.69,2.5,SE,18.4,-,0.00,Snow,Light Snow,140,2013-11-08 10:57:00
2:04 AM,32.0,30.2,93,29.69,1.5,SE,15.0,-,0.00,Snow,Light Snow,140,2013-11-08 11:04:00
2:22 AM,32.0,30.2,93,29.69,0.8,SSE,15.0,-,0.01,Snow,Light Snow,160,2013-11-08 11:22:00
2:37 AM,32.0,30.2,93,29.69,1.2,South,9.2,-,0.02,Snow,Light Snow,180,2013-11-08 11:37:00
2:42 AM,32.0,30.2,93,29.69,3.0,SSW,10.4,-,0.02,Snow,Light Snow,200,2013-11-08 11:42:00
2:53 AM,33.1,30.9,92,29.69,10.0,SSW,15.0,-,0.02,,Overcast,200,2013-11-08 11:53:00
3:21 AM,33.8,30.2,87,29.69,2.5,SSW,12.7,-,0.00,Snow,Light Snow,210,2013-11-08 12:21:00
3:36 AM,33.8,30.2,87,29.68,9.0,South,12.7,-,0.01,,Overcast,190,2013-11-08 12:36:00
3:44 AM,33.8,28.4,81,29.68,10.0,SSW,17.3,21.9,0.01,,Mostly Cloudy,210,2013-11-08 12:44:00
3:53 AM,33.1,26.1,75,29.68,10.0,SSW,18.4,-,0.01,,Mostly Cloudy,210,2013-11-08 12:53:00
4:53 AM,33.1,27.0,78,29.68,5.0,WSW,26.5,31.1,0.00,,Haze,240,2013-11-08 13:53:00
5:00 AM,30.2,28.4,93,29.68,2.5,WSW,21.9,34.5,0.00,Snow,Light Snow,250,2013-11-08 14:00:00
5:08 AM,30.2,28.4,93,29.68,7.0,WSW,19.6,-,0.00,,Mostly Cloudy,240,2013-11-08 14:08:00
5:53 AM,33.1,26.1,75,29.68,10.0,SSW,21.9,-,0.00,,Overcast,210,2013-11-08 14:53:00
6:53 AM,32.0,26.1,79,29.68,10.0,SSW,15.0,-,0.00,,Overcast,200,2013-11-08 15:53:00
7:53 AM,33.1,26.1,75,29.67,8.0,SSW,17.3,-,0.00,Snow,Light Snow,210,2013-11-08 16:53:00
8:53 AM,33.1,27.0,78,29.65,10.0,South,16.1,-,0.00,,Mostly Cloudy,190,2013-11-08 17:53:00
9:06 AM,32.0,28.4,87,29.65,10.0,South,13.8,-,N/A,,Scattered Clouds,170,2013-11-08 18:06:00
9:53 AM,32.0,19.9,61,29.65,10.0,SW,19.6,-,N/A,,Scattered Clouds,220,2013-11-08 18:53:00
10:53 AM,33.1,23.0,66,29.65,10.0,SSW,19.6,25.3,N/A,,Mostly Cloudy,210,2013-11-08 19:53:00
11:53 AM,34.0,23.0,64,29.64,10.0,SSW,16.1,24.2,N/A,,Mostly Cloudy,200,2013-11-08 20:53:00
12:53 PM,35.1,27.0,72,29.64,10.0,South,16.1,-,N/A,,Overcast,190,2013-11-08 21:53:00
1:35 PM,33.8,28.4,81,29.63,3.0,South,16.1,27.6,0.00,Snow,Light Snow,180,2013-11-08 22:35:00
1:53 PM,34.0,28.0,79,29.62,10.0,South,20.7,27.6,0.00,,Overcast,190,2013-11-08 22:53:00
2:00 PM,33.8,28.4,81,29.62,7.0,South,23.0,28.8,N/A,,Overcast,180,2013-11-08 23:00:00
2:13 PM,33.8,30.2,87,29.61,2.0,South,17.3,-,0.00,Snow,Light Snow,170,2013-11-08 23:13:00
2:20 PM,33.8,30.2,87,29.62,1.5,South,17.3,-,0.00,Snow,Light Snow,170,2013-11-08 23:20:00
2:38 PM,33.8,30.2,87,29.61,1.0,South,15.0,-,0.00,Snow,Light Snow,170,2013-11-08 23:38:00
2:44 PM,33.8,32.0,93,29.60,1.0,SSE,15.0,-,0.00,Snow,Light Snow,160,2013-11-08 23:44:00
2:53 PM,33.1,32.0,96,29.60,1.2,SSE,13.8,-,0.01,Snow,Light Snow,160,2013-11-08 23:53:00
3:20 PM,33.8,32.0,93,29.58,2.5,SSE,20.7,-,0.01,Snow,Light Snow,150,2013-11-09 00:20:00
3:51 PM,33.8,32.0,93,29.56,1.2,SSE,18.4,25.3,0.02,Snow,Light Snow,150,2013-11-09 00:51:00
3:53 PM,33.1,32.0,96,29.56,1.2,SSE,19.6,25.3,0.02,Snow,Light Snow,150,2013-11-09 00:53:00
4:37 PM,33.8,32.0,93,29.52,2.5,SE,16.1,24.2,0.01,Snow,Light Snow,140,2013-11-09 01:37:00
4:53 PM,34.0,33.1,96,29.51,3.0,SE,18.4,-,0.01,Snow,Light Snow,140,2013-11-09 01:53:00
5:11 PM,33.8,33.8,100,29.50,2.0,SE,19.6,-,0.01,Snow,Light Snow,140,2013-11-09 02:11:00
5:51 PM,33.8,33.8,100,29.46,3.0,SE,16.1,27.6,0.02,Snow,Light Snow,140,2013-11-09 02:51:00
5:53 PM,34.0,33.1,96,29.47,3.0,SE,18.4,27.6,0.02,,Overcast,140,2013-11-09 02:53:00
6:44 PM,37.4,35.6,93,29.43,2.5,South,15.0,-,0.01,Rain,Light Rain,170,2013-11-09 03:44:00
6:53 PM,37.0,37.0,100,29.43,2.5,South,15.0,-,0.01,,Overcast,190,2013-11-09 03:53:00
7:53 PM,37.9,37.0,97,29.43,3.0,SSW,16.1,-,0.01,Rain,Light Rain,200,2013-11-09 04:53:00
8:33 PM,37.4,37.4,100,29.43,2.5,SSW,17.3,-,0.01,Rain,Light Rain,200,2013-11-09 05:33:00
8:53 PM,37.9,37.9,100,29.44,2.5,SSW,18.4,-,0.01,Rain,Light Rain,200,2013-11-09 05:53:00
9:53 PM,37.9,37.9,100,29.43,2.5,SSW,16.1,-,0.00,Rain,Light Rain,200,2013-11-09 06:53:00
10:53 PM,37.9,37.9,100,29.44,2.5,SSW,20.7,-,0.00,Rain,Light Rain,200,2013-11-09 07:53:00
11:53 PM,37.9,37.9,100,29.44,3.0,SSW,16.1,-,0.01,,Overcast,200,2013-11-09 08:53:00